TimeCDT,TemperatureF,Dew PointF,Humidity,Sea Level PressureIn,VisibilityMPH,Wind Direction,Wind SpeedMPH,Gust SpeedMPH,PrecipitationIn,Events,Conditions,WindDirDegrees,DateUTC
12:10 AM,35.6,33.8,93,29.80,3.0,ESE,5.8,-,0.00,,Light Drizzle,120,2013-03-18 05:10:00
12:23 AM,35.6,32.0,87,29.81,3.0,SE,4.6,-,0.00,,Light Ice Pellets,140,2013-03-18 05:23:00
12:29 AM,35.6,32.0,87,29.81,4.0,SSE,4.6,-,0.00,Snow,Light Drizzle,150,2013-03-18 05:29:00
12:52 AM,35.1,32.0,89,29.83,3.0,SSE,4.6,-,0.01,Snow,Light Drizzle,150,2013-03-18 05:52:00
1:52 AM,34.0,32.0,92,29.76,3.0,SE,16.1,-,0.02,Snow,Light Drizzle,140,2013-03-18 06:52:00
2:40 AM,33.8,32.0,93,29.75,6.0,SSE,11.5,-,0.02,Rain,Light Rain,160,2013-03-18 07:40:00
2:52 AM,34.0,32.0,92,29.78,4.0,South,6.9,-,0.02,Rain-Snow,Light Rain,180,2013-03-18 07:52:00
3:13 AM,33.8,32.0,93,29.77,1.5,South,5.8,-,0.01,Snow,Light Snow,180,2013-03-18 08:13:00
3:39 AM,33.8,32.0,93,29.78,3.0,SW,5.8,-,0.03,Snow,Light Snow,230,2013-03-18 08:39:00
3:52 AM,34.0,32.0,92,29.80,5.0,SW,6.9,-,0.03,Snow,Light Snow,220,2013-03-18 08:52:00
4:52 AM,35.1,32.0,89,29.78,6.0,SSW,4.6,-,0.00,,Overcast,210,2013-03-18 09:52:00
5:52 AM,36.0,33.1,89,29.78,5.0,West,9.2,-,N/A,,Overcast,260,2013-03-18 10:52:00
6:08 AM,35.6,33.8,93,29.76,6.0,West,9.2,-,N/A,,Overcast,260,2013-03-18 11:08:00
6:35 AM,37.4,30.2,75,29.77,9.0,WNW,15.0,24.2,N/A,,Mostly Cloudy,290,2013-03-18 11:35:00
6:52 AM,35.1,27.0,72,29.79,10.0,WNW,21.9,27.6,N/A,,Partly Cloudy,300,2013-03-18 11:52:00
7:52 AM,33.1,23.0,66,29.83,10.0,NW,20.7,-,N/A,,Scattered Clouds,310,2013-03-18 12:52:00
8:52 AM,32.0,21.0,64,29.85,10.0,NW,13.8,-,N/A,,Partly Cloudy,320,2013-03-18 13:52:00
9:52 AM,33.1,18.0,54,29.87,10.0,NW,18.4,29.9,N/A,,Clear,310,2013-03-18 14:52:00
10:52 AM,35.1,19.0,52,29.89,10.0,NW,23.0,32.2,N/A,,Clear,320,2013-03-18 15:52:00
11:52 AM,37.0,19.9,50,29.91,10.0,NW,23.0,29.9,N/A,,Partly Cloudy,310,2013-03-18 16:52:00
12:52 PM,36.0,16.0,44,29.93,10.0,NW,28.8,36.8,N/A,,Scattered Clouds,320,2013-03-18 17:52:00
1:52 PM,35.1,14.0,42,29.94,10.0,WNW,29.9,35.7,N/A,,Scattered Clouds,300,2013-03-18 18:52:00
2:52 PM,36.0,15.1,43,29.95,10.0,NW,26.5,34.5,N/A,,Scattered Clouds,320,2013-03-18 19:52:00
3:52 PM,37.0,15.1,41,29.96,10.0,WNW,20.7,36.8,N/A,,Scattered Clouds,300,2013-03-18 20:52:00
4:52 PM,36.0,14.0,41,29.98,10.0,NW,24.2,31.1,N/A,,Scattered Clouds,320,2013-03-18 21:52:00
5:52 PM,35.1,12.9,40,29.99,10.0,NW,21.9,-,N/A,,Partly Cloudy,320,2013-03-18 22:52:00
6:52 PM,35.1,14.0,42,30.01,10.0,NW,13.8,-,N/A,,Partly Cloudy,310,2013-03-18 23:52:00
7:52 PM,30.9,14.0,50,30.03,10.0,NW,10.4,-,N/A,,Clear,320,2013-03-19 00:52:00
8:52 PM,28.9,15.1,56,30.05,10.0,NW,8.1,-,N/A,,Clear,320,2013-03-19 01:52:00
9:52 PM,28.0,15.1,58,30.05,10.0,NNW,9.2,-,N/A,,Clear,330,2013-03-19 02:52:00
10:52 PM,26.1,14.0,60,30.08,10.0,NW,8.1,-,N/A,,Clear,310,2013-03-19 03:52:00